Location: Dampierre
(47.8481°N, 6.1830°E)
Time: 18:57:17
(UTC+00:00)

Daily predictions for brighter satellites

Satellite Brightness Start Highest point End
(mag) Time Altitude Azimuth Time Altitude Azimuth Time Altitude Azimuth
BREEZE-M DEB (TANK) 4.2 19:16:16 10° WNW 19:20:45 84° NNE 19:38:24 10° ESE
Cosmos 1553 Rocket 4.0 19:29:32 10° S 19:35:40 80° E 19:41:55 10° N
Cosmos 1833 Rocket 4.0 19:31:07 10° N 19:35:54 27° NE 19:40:39 10° ESE
USA 186 3.5 19:38:46 10° SSW 19:40:52 23° W 19:42:54 10° NW
Resurs 01 Rocket 1.9 19:39:50 10° SSE 19:44:09 52° ENE 19:48:29 10° N
Cosmos 1503 Rocket 4.3 19:39:43 10° S 19:44:38 46° ESE 19:49:37 10° NNE
Landsat 7 4.4 19:40:38 10° SE 19:45:08 44° ENE 19:49:39 10° N
USA 308 4.1 19:41:30 10° WNW 19:45:32 39° N 19:49:36 10° E
Cosmos 1151 Rocket 3.9 19:45:56 10° SSE 19:49:47 31° E 19:53:40 10° NNE
CREW DRAGON DEMO-1 DEB 3.8 19:49:14 10° WNW 19:51:43 35° N 19:54:13 10° ENE
Ariane Rocket 3.3 19:50:12 10° S 19:55:14 71° WSW 20:00:19 10° NNW
Cosmos 2084 4.2 19:55:03 10° S 19:58:35 28° ESE 20:02:12 10° ENE
BREEZE-M R/B 1.7 19:58:35 10° WSW 20:01:13 59° SSE 20:03:39 10° ENE
CZ-4C R/B 3.3 19:56:40 10° NW 20:03:34 59° NE 20:11:10 12° ESE
Cosmos 1500 4.0 20:07:08 10° N 20:10:36 34° ENE 20:13:07 16° SE
Cosmos 1437 Rocket 3.9 20:09:11 10° SSW 20:12:55 45° WNW 20:16:46 10° N
Cosmos 2082 Rocket 3.5 20:08:45 10° N 20:13:33 27° NE 20:18:07 11° ESE
Cosmos 1933 3.5 20:12:43 10° SSW 20:16:46 78° W 20:20:48 10° N
Cosmos 1354 Rocket 3.9 20:11:54 10° SSW 20:17:07 75° ESE 20:22:22 10° NNE
COSMOS 2406 3.7 20:11:40 10° NNW 20:17:10 48° NE 20:21:35 16° SE
SPOT 1/Viking Rocket 3.7 20:14:13 13° SSE 20:18:50 64° ENE 20:23:59 10° N
IGS 5A 3.6 20:17:53 10° S 20:22:01 75° WSW 20:26:11 10° NNW
NOSS 3-3 (A) 3.9 20:17:23 10° SSW 20:22:58 58° ESE 20:29:21 10° NE
NOSS 3-3 (C) 3.9 20:17:29 10° SSW 20:23:05 57° ESE 20:29:27 10° NE
Cosmos 1633 Rocket 3.0 20:18:54 10° N 20:23:19 82° E 20:27:09 14° SSE
ATLAS 2AS CENTAUR R/B 4.0 20:19:21 10° NW 20:26:15 36° NNE 20:32:41 10° E
USA 305 3.5 20:22:33 10° WNW 20:26:45 53° NNE 20:30:26 13° E
OBJECT-B 3.8 20:30:15 10° WSW 20:31:31 12° W 20:32:47 10° WNW
ARIANE 5 R/B 2.8 20:29:17 19° SE 20:32:13 55° ENE 20:36:28 10° N
SPOT 3 Rocket 3.9 20:28:01 10° S 20:33:08 63° WSW 20:38:16 10° NNW
Cosmos 1782 2.8 20:29:53 10° S 20:33:53 90° ESE 20:37:55 10° N
Cosmos 1271 Rocket 4.2 20:33:00 20° ESE 20:34:12 23° E 20:37:22 10° NE
Cosmos 1328 Rocket 3.5 20:29:54 10° S 20:34:19 72° E 20:38:44 10° NNE
Cosmos 1470 Rocket 3.7 20:30:06 10° N 20:34:35 63° ENE 20:37:35 20° SSE
Cosmos 1602 4.3 20:34:36 10° NNW 20:38:24 55° W 20:41:47 13° S
Iridium 4 Rocket 4.3 20:34:45 18° SE 20:38:36 43° E 20:44:09 10° NNE
Cosmos 2278 Rocket 2.6 20:34:13 10° S 20:39:31 43° ESE 20:44:50 10° NE
MetOp-B 4.4 20:36:12 12° S 20:41:06 70° WSW 20:46:29 10° NNW
CZ-2C R/B 3.6 20:37:06 10° NNE 20:41:36 90° S 20:46:09 10° SSW
CARTOSAT-1 3.6 20:40:09 22° SSE 20:42:50 65° ENE 20:47:07 10° N
Cosmos 1437 2.2 20:41:33 23° S 20:43:11 83° ESE 20:46:02 10° NNE
Cosmos 1709 Rocket 4.2 20:38:40 10° NNW 20:44:44 67° W 20:50:44 10° S
USA 306 3.2 20:41:49 10° WNW 20:46:03 63° NNE 20:48:57 20° ESE
Cosmos 2184 Rocket 4.3 20:40:33 10° N 20:46:38 51° ENE 20:50:31 22° SE
Cosmos 1844 Rocket 4.3 20:41:31 10° WSW 20:46:41 38° NW 20:51:53 10° NNE
Cosmos 1933 Rocket 3.7 20:44:38 10° N 20:48:56 57° ENE 20:51:09 26° SSE
Meteor 1-11 Rocket 4.5 20:43:45 10° N 20:49:26 43° ENE 20:52:49 22° SE
Cosmos 1538 Rocket 4.1 20:45:13 10° NNW 20:50:36 69° ENE 20:53:47 24° SE
Terra 2.4 20:49:51 24° SE 20:52:21 44° ENE 20:56:53 10° N
Cosmos 2074 Rocket 4.2 20:46:08 10° N 20:52:22 59° ENE 20:56:22 23° SSE
SPOT 5 3.1 20:50:15 23° SE 20:53:20 64° ENE 20:58:34 10° N
Cosmos 773 Rocket 4.4 20:51:56 10° NNW 20:57:11 60° WSW 21:00:48 20° S
X-37B 2.0 20:58:01 10° WSW 21:00:37 24° SSW 21:00:37 24° SSW
USA 245 3.2 21:01:54 30° SW 21:02:17 33° W 21:04:23 10° NNW
Spot 2 Rocket 3.6 20:59:31 21° S 21:02:57 73° WSW 21:08:01 10° NNW
Cosmos 1812 2.6 21:02:06 24° S 21:04:23 89° W 21:08:16 10° N
ATLAS 5 CENTAUR R/B 3.5 21:00:37 10° NW 21:05:47 35° WSW 21:10:12 16° S
Cosmos 1680 Rocket 4.5 21:02:32 10° N 21:07:27 36° ENE 21:10:09 22° ESE
SJ 16-02 1.4 21:05:55 28° S 21:08:00 55° ESE 21:12:21 10° NNE
H-2A R/B 3.9 21:06:23 10° NNE 21:10:25 43° E 21:11:28 35° SE
USA 307 2.9 21:08:00 10° WNW 21:12:17 81° NNE 21:14:12 32° ESE
ERS-1 Rocket 2.9 21:10:30 27° SSE 21:13:16 86° WSW 21:18:20 10° NNW
Cosmos 1536 3.6 21:10:09 10° N 21:13:58 38° ENE 21:14:57 32° ESE
Meteor 1-10 Rocket 4.2 21:11:23 24° S 21:14:51 70° E 21:20:29 10° NNE
Meteor 1-5 Rocket 4.2 21:11:00 10° NNW 21:16:23 70° W 21:19:33 24° S
Cosmos 1666 2.6 21:12:42 10° NNW 21:16:27 79° W 21:17:42 40° S
CZ-4B DEB 4.3 21:17:35 56° SE 21:18:02 66° ENE 21:21:14 10° N
Cosmos 1833 Rocket 2.9 21:14:41 10° NNW 21:20:16 63° WSW 21:23:15 28° S
deb Kosmos-1763 4.1 21:17:17 10° NNW 21:20:49 67° WSW 21:21:39 47° S
Resurs 01 Rocket 4.0 21:17:50 10° SW 21:20:57 19° W 21:24:05 10° NW
Cosmos 2228 Rocket 3.1 21:23:47 40° SSE 21:25:11 60° E 21:29:35 10° NNE
USA 308 2.8 21:21:33 10° WNW 21:25:52 86° SSW 21:27:15 43° SE
CREW DRAGON DEMO-1 DEB 3.1 21:23:34 10° WNW 21:25:38 49° W 21:25:38 49° W
Cosmos 1743 3.9 21:24:42 10° N 21:28:06 29° ENE 21:28:35 28° E
Cosmos 2297 4.4 21:36:35 31° ESE 21:37:21 32° ESE 21:42:21 10° NE
BREEZE M DEB (TANK) 2.6 21:38:13 10° WNW 21:40:27 34° W 21:40:27 34° W
Cosmos 923 Rocket 3.9 21:38:15 10° NNW 21:43:33 85° ENE 21:45:24 42° SSE
Cosmos 1898 Rocket 4.0 21:44:07 39° SE 21:45:03 42° ESE 21:50:04 10° NE
Cosmos 1295 Rocket 4.5 21:38:49 10° N 21:45:12 80° E 21:48:03 36° SSE
CZ-4C R/B 3.6 21:45:19 10° NW 21:52:16 45° WSW 21:56:21 27° S
Cosmos 1869 Rocket 3.7 21:53:22 10° NNW 21:57:39 64° W 21:58:40 47° SSW
Cosmos 2082 Rocket 2.4 21:52:30 10° NNW 21:58:03 61° WSW 21:59:58 39° S
COSMOS 2406 4.4 21:56:21 10° NW 22:01:16 31° WSW 22:03:39 23° SW
Cosmos 990 Rocket 3.9 22:00:06 46° S 22:01:36 71° ESE 22:06:51 10° NNE
Cosmos 1544 2.9 21:59:28 10° N 22:03:06 83° W 22:03:06 83° W
NOSS 3-4 (A) 4.0 21:57:22 10° NW 22:04:17 63° SW 22:07:31 36° S
NOSS 3-4 (C) 4.0 21:57:28 10° NW 22:04:23 63° SW 22:07:37 36° S
USA 305 3.4 22:02:36 10° WNW 22:06:30 44° SW 22:06:30 44° SW
Meteor 1-27 Rocket 3.9 22:05:24 30° SSW 22:08:22 73° WNW 22:14:18 10° N
Cosmos 1271 Rocket 4.3 22:08:06 21° WSW 22:10:00 32° WNW 22:13:39 10° N
SL-8 Rocket 4.1 22:08:11 10° N 22:14:31 66° ENE 22:16:39 42° SE
DNEPR-1 R/B 4.4 22:15:13 46° SE 22:15:34 46° ESE 22:20:26 10° NE
Cosmos 1707 Rocket 3.4 22:16:19 69° S 22:16:51 88° E 22:21:17 10° N
ATLAS 2AS CENTAUR R/B 2.7 22:10:33 10° NW 22:17:59 81° SW 22:20:40 41° SSE
USA 215 3.9 22:12:43 10° E 22:19:01 54° NNE 22:25:22 10° NW
ALOS 2 3.4 22:20:18 36° E 22:20:56 38° ENE 22:25:00 10° N
Cosmos 1515 3.8 22:21:30 65° NE 22:21:30 65° NE 22:24:56 10° NNE
Cosmos 2112 Rocket 4.1 22:16:54 10° NNW 22:22:15 72° WSW 22:23:29 52° S
BREEZE-M R/B 4.3 22:20:41 10° WNW 22:21:31 19° WNW 22:21:31 19° WNW
Cosmos 2278 Rocket 3.6 22:18:28 10° WSW 22:23:41 37° NW 22:28:55 10° NNE
Gbstr 26 Del rocket 4.1 22:17:36 10° WNW 22:25:04 80° NNE 22:29:05 24° ESE
Cosmos 1900 4.3 22:24:37 60° SSE 22:25:09 64° ESE 22:30:10 10° NE
USA 306 4.1 22:21:59 10° WNW 22:25:01 31° WSW 22:25:01 31° WSW
Meteor 1-19 Rocket 4.2 22:26:33 51° SE 22:27:30 59° E 22:32:48 10° NNE
Terra 3.4 22:28:43 21° WSW 22:30:17 25° W 22:34:11 10° NW
ERBS 3.4 22:29:00 10° NW 22:32:04 39° NNE 22:32:04 39° NNE
Cosmos 2369 Rocket 2.9 22:32:38 35° ESE 22:32:47 35° ESE 22:37:52 10° NE
Cosmos 1943 Rocket 2.1 22:33:19 54° SSE 22:34:20 66° ESE 22:39:54 10° NNE
Okean 1 3.2 22:35:16 82° NNE 22:35:16 82° NNE 22:39:08 10° N
Cosmos 1340 Rocket 3.7 22:33:13 10° NNW 22:37:03 40° W 22:37:15 40° WSW
SL-24 R/B - RUBIN 2 3.9 22:35:16 10° NW 22:40:41 65° WSW 22:41:12 60° SSW
Meteor 2-9 Rocket 4.2 22:35:23 10° N 22:41:14 88° E 22:42:35 55° SSE
Cosmos 864 Rocket 4.4 22:36:11 10° N 22:42:23 82° E 22:44:06 50° SSE
Cosmos 1959 Rocket 4.4 22:38:54 10° N 22:45:11 88° E 22:46:55 51° S
Cosmos 2242 Rocket 4.4 22:46:59 38° E 22:46:59 38° E 22:50:57 10° NNE
SJ 16-02 3.8 22:43:41 10° WSW 22:46:56 20° NW 22:50:13 10° N
Spot 4 3.8 22:47:43 62° SSW 22:48:20 70° WSW 22:53:13 10° NNW
Cosmos 1733 Rocket 3.3 22:44:12 10° NNW 22:48:27 56° W 22:48:36 55° WSW
Cosmos 1937 Rocket 3.4 22:47:49 55° SW 22:48:58 80° WNW 22:54:10 10° NNE
Cosmos 1680 Rocket 4.4 22:44:42 10° NW 22:49:34 37° WSW 22:50:28 34° SW
Cosmos 44 3.7 22:48:39 10° NW 22:53:56 54° WSW 22:54:21 52° SW
Cosmos 1656 Rocket 4.5 22:56:46 34° ESE 22:56:46 34° ESE 23:01:42 10° NE
Meteor 2-4 Rocket 3.8 22:58:14 54° SE 22:59:17 65° E 23:04:52 10° NNE
Cosmos 1908 Rocket 3.5 22:57:50 10° N 23:02:21 78° E 23:02:27 77° E
Cosmos 1461 3.2 23:02:50 64° E 23:02:50 64° E 23:07:07 10° NE
Cosmos 1743 4.5 23:00:39 10° NW 23:03:39 23° W 23:03:39 23° W
Cosmos 2181 Rocket 4.1 23:02:06 44° SSW 23:04:04 69° W 23:10:13 10° N
Thor Agena Rocket 4.0 22:59:28 10° NNE 23:04:30 44° E 23:04:55 43° ESE
Cosmos 1975 3.1 23:00:47 10° NNW 23:04:22 63° WNW 23:04:22 63° WNW
Cosmos 1818 3.5 22:59:32 10° NW 23:04:58 64° WSW 23:05:31 60° SSW
RESURS DK-1 3.2 23:01:09 10° NNW 23:05:08 42° NE 23:05:36 40° ENE
Nimbus 7 Rocket 4.4 23:03:55 10° NNE 23:09:46 64° ESE 23:10:54 53° SSE
COBE Rocket 3.8 23:11:51 69° SSE 23:12:30 90° NNW 23:17:39 10° NNW
Cosmos 2366 rocket 4.2 23:07:26 10° NNW 23:13:29 59° W 23:15:06 45° SW
Cosmos 1821 Rocket 4.1 23:08:05 10° N 23:14:30 69° E 23:16:21 47° SE
Gblst 52 Del rocket 4.3 23:10:33 10° WNW 23:17:24 85° SSW 23:20:01 37° ESE
Cosmos 1833 4.4 23:14:34 10° NNW 23:20:19 66° ENE 23:22:04 44° ESE
Cosmos 1703 Rocket 3.5 23:31:41 80° WNW 23:31:41 80° WNW 23:36:04 10° N
SL-27 R/B 3.7 23:29:06 10° NNW 23:31:28 38° NNE 23:31:28 38° NNE
Cosmos 1782 Rocket 3.5 23:29:32 10° N 23:34:00 88° NNW 23:34:00 88° NNW
ATLAS CENTAUR R/B 2.9 23:36:43 24° ENE 23:36:43 24° ENE 23:38:35 10° NE
Cosmos 2150 Rocket 4.0 23:38:06 64° SSE 23:38:41 71° ESE 23:43:59 10° NNE
Okean 3 3.6 23:43:14 68° ENE 23:43:14 68° ENE 23:47:15 10° NNE
Helios 1A 4.2 23:49:36 31° E 23:50:24 33° ENE 23:54:09 10° N
SeaSat 1 2.3 23:46:22 10° NNE 23:51:19 72° ESE 23:51:43 68° SSE
Okean 1-7 3.6 23:55:19 46° WNW 23:55:22 46° WNW 23:59:30 10° N
Cosmos 1378 3.6 23:56:20 57° NNW 23:56:20 57° NNW 23:59:25 10° N
